Theta_e
312 313 322 326 332 330 335 334 335 338 337 335 334 333 334 333 333 336 338 337 335 328 323 321 321 322 322 318 317 317 317 316 315 314 313 313 313 313 312 312 311 313 313 312 311 310 311 314 316
312 320 326 330 332 335 334 332 334 338 338 336 335 336 335 334 332 336 337 335 334 329 323 321 320 321 321 319 318 318 318 318 317 316 315 314 314 314 314 315 315 317 316 316 320 318 314 312 315
321 323 329 331 335 336 334 337 338 339 337 335 334 334 332 333 333 336 338 336 334 331 324 321 320 320 320 319 318 318 319 319 318 318 317 316 315 315 315 317 321 323 324 325 324 325 325 327 327
325 326 327 333 336 336 336 339 340 339 338 335 333 333 333 332 332 333 336 336 335 335 328 321 320 320 320 320 319 319 319 319 319 319 319 319 319 317 316 319 326 327 327 327 327 330 332 330 329
327 328 331 331 331 332 333 335 338 338 337 335 334 332 333 332 332 332 336 335 335 335 336 327 319 320 321 321 320 319 319 319 320 320 320 320 320 319 317 319 326 329 327 325 329 331 331 331 331
327 328 332 334 333 333 332 333 334 336 336 336 334 333 333 332 333 332 334 336 335 335 334 335 325 320 320 321 321 320 320 320 320 321 321 321 320 321 320 319 325 332 328 322 322 321 320 320 324
327 329 331 332 333 333 332 333 334 333 334 334 333 333 332 335 334 333 334 334 335 335 335 335 335 327 322 321 321 321 320 321 321 322 322 322 322 321 321 320 326 325 322 322 322 320 319 319 318
325 328 330 332 334 333 332 331 332 332 332 334 333 334 333 334 333 333 332 332 335 336 335 336 335 336 330 322 321 321 321 321 322 323 324 324 323 322 322 329 332 333 331 330 327 324 323 322 317
325 326 329 331 332 332 332 332 332 331 332 332 333 333 332 331 331 332 332 331 331 332 336 336 336 336 337 325 322 322 322 322 322 323 324 325 324 323 327 334 334 335 331 330 329 326 325 322 319
328 328 329 330 331 332 332 332 333 333 332 332 332 331 331 331 332 332 332 332 331 330 331 336 337 337 336 338 326 323 323 323 323 323 323 325 325 328 335 335 334 331 331 332 330 329 328 328 322
330 330 329 330 332 332 333 333 333 333 333 332 332 332 332 331 331 331 331 331 331 330 329 332 336 336 337 337 340 337 332 326 324 323 323 326 328 338 338 333 333 334 333 332 330 330 329 329 329
328 330 330 331 332 332 333 332 332 332 333 333 333 332 332 332 331 331 330 330 330 329 329 329 335 335 336 337 341 339 339 338 331 325 325 331 335 338 331 329 332 334 333 331 331 330 330 329 330
328 328 328 330 331 332 331 331 331 331 331 331 331 332 332 332 331 330 330 329 328 328 329 329 332 335 335 336 339 341 341 342 339 339 339 339 337 332 332 334 335 334 333 332 331 331 329 329 328
327 327 327 328 328 329 330 330 329 330 331 331 331 331 331 332 330 330 330 328 328 329 329 328 329 337 335 334 337 340 340 342 341 341 339 339 335 330 332 334 334 333 332 331 331 331 329 328 329
325 328 329 330 329 330 329 331 331 329 328 329 329 330 330 330 330 329 329 328 328 329 328 327 330 335 337 335 337 337 340 339 340 339 337 335 333 330 330 334 335 333 332 331 330 329 328 328 328
325 326 329 329 329 330 330 332 332 329 329 329 330 330 330 330 329 328 328 327 329 328 327 328 331 335 337 337 338 337 343 340 339 337 334 332 331 331 331 333 333 331 332 332 330 328 328 328 327
325 327 327 329 329 329 331 331 331 329 329 330 330 330 330 330 329 328 327 327 329 328 328 330 333 335 337 339 341 340 343 341 339 333 332 332 334 333 331 332 332 333 332 330 328 328 327 326 326
325 325 327 329 329 329 330 331 331 331 330 331 331 330 329 328 329 328 327 327 329 331 330 333 334 337 339 341 342 343 342 340 334 332 332 333 334 335 334 331 333 333 331 329 330 328 325 326 327
323 326 326 328 328 329 330 330 330 331 330 331 330 330 329 330 330 329 327 327 330 331 330 331 336 338 340 342 343 344 341 336 333 332 333 333 334 335 334 332 333 332 330 330 329 328 325 326 327
319 322 325 327 327 328 329 330 330 331 331 330 330 330 330 329 328 329 328 328 334 332 331 332 338 339 339 342 343 340 336 334 333 332 333 334 334 333 333 332 332 331 330 329 328 327 325 325 323
319 321 323 324 325 326 327 329 330 330 330 329 328 328 328 328 327 327 327 331 334 333 332 334 337 340 341 342 338 336 333 334 333 334 334 334 335 331 330 332 330 330 329 328 326 325 324 325 325
321 320 320 322 323 326 325 329 331 330 331 330 329 328 328 328 328 327 329 335 335 335 335 338 339 339 339 337 336 334 333 333 334 331 333 334 333 331 329 330 329 329 328 327 327 327 325 324 325
320 319 320 321 323 325 324 328 328 329 329 329 329 328 327 328 329 329 330 335 338 337 338 339 339 335 337 334 335 334 334 333 333 333 331 333 332 332 329 328 328 327 326 327 327 326 325 325 324
320 319 320 322 323 326 327 327 327 327 330 329 329 328 328 328 328 329 336 338 339 338 339 339 336 338 336 334 334 333 332 333 332 332 333 333 332 330 329 328 327 326 327 326 324 325 325 326 325
318 323 323 324 324 325 324 325 327 328 328 328 329 329 329 329 329 336 338 338 338 338 339 338 337 337 334 335 335 336 335 329 330 333 333 331 330 329 331 328 328 327 326 324 326 325 326 326 326
318 322 323 323 324 324 323 326 327 329 328 327 327 328 328 331 334 338 338 337 337 338 338 338 337 336 335 335 335 334 334 334 334 334 333 333 331 328 328 328 327 327 327 326 327 327 327 326 326
318 319 321 325 323 323 325 327 328 329 329 330 328 327 331 335 336 337 337 337 338 338 337 337 337 336 335 334 334 334 333 335 333 333 328 330 328 328 329 329 327 328 328 328 329 328 327 326 326
318 319 321 324 325 326 325 327 329 331 331 332 330 329 335 337 337 336 336 337 337 337 336 336 335 335 334 334 333 333 332 331 332 331 331 329 328 331 327 327 326 327 328 328 327 325 326 323 324
318 319 320 324 323 326 327 327 333 333 332 329 329 329 336 337 336 337 336 336 336 336 336 335 335 334 333 333 333 331 330 332 331 331 331 329 330 330 329 326 327 328 328 327 327 325 324 323 324
317 319 321 324 325 325 326 328 331 329 330 331 330 329 336 336 336 336 336 336 336 336 335 334 333 333 333 332 334 331 331 333 331 330 330 328 329 328 328 329 329 329 329 327 327 329 329 328 326
Wind_Speed
5 8 7 7 6 7 16 20 4 4 4 3 5 4 13 9 8 5 13 13 14 8 8 10 11 12 12 11 10 9 8 6 4 2 2 2 4 4 5 6 7 8 9 8 8 9 8 7 9
10 7 6 9 8 12 14 14 9 5 26 8 3 6 7 3 13 16 14 11 14 7 9 10 12 13 14 14 12 11 11 7 5 3 1 2 4 5 6 7 6 7 9 8 10 10 10 10 8
13 12 12 5 11 15 14 3 4 7 10 12 5 6 3 10 11 12 11 10 15 11 11 11 12 14 16 15 14 13 12 10 7 4 2 2 4 5 6 7 7 7 8 10 11 10 9 10 10
9 5 12 7 18 21 12 8 3 4 28 2 6 6 6 10 7 7 5 8 15 12 12 14 14 14 16 17 16 15 13 12 9 6 4 4 5 7 8 7 8 8 9 11 12 13 11 12 11
9 13 11 15 19 20 16 19 14 7 11 7 4 2 11 10 12 8 7 8 11 15 14 12 15 16 17 18 18 16 14 13 11 10 8 7 8 9 10 9 9 10 11 13 14 14 15 16 16
10 12 12 15 20 22 16 15 16 13 3 13 5 11 6 12 14 7 5 7 8 12 17 18 14 18 20 21 21 19 17 15 12 12 11 11 11 11 12 13 11 12 17 15 16 18 19 20 20
18 11 17 19 20 20 16 7 10 15 13 7 12 3 5 16 7 3 3 8 11 13 18 20 20 18 23 23 24 23 21 18 16 16 16 16 15 15 16 15 13 16 18 17 16 16 16 19 20
23 12 22 20 18 21 19 20 9 16 12 5 6 3 8 4 8 5 9 10 15 17 21 24 22 24 25 30 29 27 26 23 21 20 20 20 20 19 19 14 15 15 15 17 18 18 18 18 19
21 14 16 23 22 19 20 17 20 17 5 12 3 7 7 14 20 10 12 13 14 15 22 28 24 25 22 31 34 32 31 28 27 25 24 23 22 20 16 14 16 18 19 21 21 21 18 16 17
21 16 26 22 21 18 22 21 13 17 12 15 18 16 19 19 8 11 17 18 18 20 14 27 25 27 26 25 32 34 36 32 32 30 27 25 21 15 7 16 17 18 18 16 17 9 10 11 14
28 24 25 26 31 31 25 26 24 26 18 17 25 25 21 20 23 22 22 24 22 24 20 18 27 29 30 30 24 30 30 32 36 33 29 24 16 9 13 15 15 16 15 13 13 10 12 11 7
27 36 34 35 34 35 26 34 31 33 31 27 35 28 25 20 19 22 26 23 22 23 23 24 25 30 33 33 27 32 31 28 30 32 27 23 17 23 19 18 16 15 14 13 13 12 14 12 9
31 28 37 39 36 37 38 32 30 37 37 38 35 33 32 30 21 24 29 26 24 22 22 21 25 31 33 38 31 31 30 23 21 19 20 23 22 18 14 14 13 16 18 16 13 14 17 16 17
36 36 38 40 39 39 33 30 34 37 34 36 34 35 37 35 27 26 31 25 23 21 25 25 26 26 32 32 37 32 31 25 23 25 24 24 22 16 18 18 18 21 19 17 18 23 18 17 13
40 33 32 32 36 33 35 32 28 36 38 38 38 38 36 32 31 31 28 27 19 23 27 25 24 20 27 33 36 34 32 29 28 28 22 21 20 16 18 16 16 18 16 20 21 21 18 18 17
32 32 30 29 29 37 30 31 26 37 33 30 34 34 34 37 31 24 23 24 26 28 27 24 20 21 25 33 34 32 25 29 23 24 22 22 22 19 16 16 18 17 21 21 19 20 16 15 15
29 23 33 33 29 30 29 31 28 38 37 35 31 33 33 33 34 20 19 23 29 31 20 19 20 22 27 32 29 23 25 29 31 18 18 18 19 17 14 16 17 21 22 22 20 18 15 15 14
23 30 34 29 26 27 30 29 28 34 35 34 30 31 27 32 38 27 25 25 33 19 19 20 21 22 26 28 23 22 27 25 19 22 18 16 16 14 16 18 20 20 20 18 17 17 15 14 13
26 32 33 29 25 27 25 26 29 23 27 27 33 27 27 31 32 24 22 23 31 23 22 24 24 25 29 25 20 24 22 21 21 18 16 16 16 13 18 18 22 21 19 16 17 14 12 14 14
33 33 31 28 26 23 23 25 24 23 20 29 28 26 22 25 31 27 23 22 23 20 18 20 22 27 27 23 21 20 22 14 17 16 16 17 17 15 17 20 21 18 16 17 16 14 13 14 15
32 33 26 30 24 27 24 25 25 24 26 31 27 26 25 25 30 36 32 22 17 16 14 14 18 24 26 24 22 18 17 15 15 15 14 16 17 16 17 18 17 15 16 15 12 10 13 14 15
28 28 28 27 22 21 20 20 25 19 22 21 22 28 30 30 32 35 35 18 17 13 10 15 22 21 23 19 20 21 20 16 13 11 11 14 12 11 15 15 15 13 10 7 11 12 13 14 16
34 22 26 27 25 21 24 15 27 16 19 15 16 23 25 23 23 25 16 19 14 14 15 19 21 22 21 23 20 20 16 12 7 8 8 8 13 16 16 15 11 7 6 9 10 12 12 13 14
26 29 27 25 19 18 25 21 25 18 18 17 18 27 27 22 24 23 21 20 20 17 18 20 22 21 23 22 16 14 13 9 8 9 10 13 14 12 10 7 4 5 7 8 9 7 6 7 9
31 22 16 18 17 22 19 22 21 21 19 19 21 24 18 14 17 26 25 23 22 22 22 23 26 22 23 18 16 12 12 13 9 7 9 9 8 6 5 7 6 5 4 4 4 4 6 4 6
29 26 15 24 17 19 23 22 20 22 19 18 12 5 11 3 24 26 23 23 23 24 24 23 24 20 19 17 13 10 8 5 5 5 4 5 3 3 6 4 4 1 1 3 2 3 3 3 4
28 28 29 23 21 16 17 20 31 24 18 13 7 11 11 21 19 22 22 23 25 25 24 24 21 19 18 15 13 10 8 4 4 4 4 2 3 5 6 4 3 5 5 4 3 4 4 3 3
31 20 26 18 25 22 20 23 14 17 19 16 12 11 20 25 21 24 26 26 26 24 24 21 19 19 18 15 12 9 7 5 4 3 2 4 8 9 2 4 4 5 5 7 7 5 6 5 4
23 25 22 21 17 16 14 13 7 14 9 4 13 19 24 24 24 26 26 26 25 24 22 22 20 18 16 13 11 9 5 5 4 3 8 6 10 3 4 4 5 4 3 3 4 6 5 5 3
29 25 23 15 25 17 14 16 8 4 5 6 13 24 29 26 26 27 28 27 26 24 23 21 19 18 16 13 11 7 5 7 7 4 8 5 11 6 7 4 5 3 1 1 4 3 3 3 5
Wind_Direction
222 162 134 227 256 228 252 250 301 126 203 154 30 329 2 337 6 65 142 144 168 160 152 164 172 177 182 181 178 177 182 172 169 135 81 26 359 335 313 302 296 296 294 293 295 299 295 285 284
171 155 247 271 249 250 248 236 245 64 29 47 288 254 246 29 50 109 130 135 169 196 175 174 176 180 187 185 185 185 185 185 195 183 139 29 6 346 327 313 293 287 284 292 305 304 297 293 278
165 198 259 222 234 252 277 263 318 56 139 275 301 130 290 84 81 78 119 143 174 210 189 186 187 186 191 189 191 193 192 193 201 208 232 338 350 336 328 312 286 286 275 273 290 292 291 286 290
157 213 252 249 264 250 268 266 143 310 229 164 270 325 103 112 108 101 117 158 183 203 206 192 194 193 198 199 198 201 206 208 211 227 253 300 323 330 325 309 292 285 283 281 287 285 284 290 275
241 251 247 251 256 263 268 243 147 239 315 209 251 40 105 105 119 117 135 176 191 191 223 202 201 203 207 208 208 209 213 219 224 238 259 280 300 315 316 305 290 277 287 282 275 276 273 274 268
224 225 258 251 250 253 259 284 296 299 306 305 187 260 131 144 111 109 146 198 211 211 206 239 224 216 213 216 215 214 218 225 234 247 262 277 286 292 300 303 294 280 282 279 280 279 276 274 265
243 249 244 257 271 279 281 304 294 288 303 298 51 135 37 101 100 127 193 219 215 217 212 231 237 233 225 221 222 220 221 226 238 248 259 269 275 281 288 299 301 290 285 287 285 280 278 279 271
235 256 265 268 270 275 293 302 296 303 274 21 328 214 281 42 126 166 252 256 226 216 214 212 232 237 240 228 224 224 225 225 233 243 254 263 268 278 288 291 300 300 300 301 299 288 284 282 273
233 251 253 253 259 267 274 287 287 277 251 279 242 247 271 283 293 297 294 277 284 273 218 212 215 244 243 235 230 225 228 228 231 237 247 256 262 279 292 299 302 285 298 306 304 292 291 285 274
225 241 244 249 263 273 278 280 291 283 270 285 291 269 264 277 306 278 274 275 280 289 281 220 217 221 244 242 239 230 229 229 233 235 242 250 261 274 281 257 264 287 292 292 318 320 314 317 280
227 236 246 255 255 266 288 294 298 294 264 239 223 276 287 295 302 299 289 277 274 279 289 279 226 222 226 234 233 241 233 232 234 236 240 248 257 261 260 274 280 282 279 289 306 302 305 312 334
241 242 244 256 260 271 276 281 287 289 291 279 277 284 279 286 289 291 284 279 278 279 289 299 248 231 229 223 217 238 238 241 234 233 235 233 231 229 244 240 240 269 287 296 282 286 281 274 270
241 242 248 252 252 258 269 271 279 280 278 286 287 287 289 282 276 275 268 268 267 285 290 284 283 236 232 221 213 222 234 237 235 230 233 230 230 237 241 255 249 239 241 251 269 271 253 249 253
244 247 250 252 257 260 261 268 274 272 277 277 272 270 269 271 270 266 267 268 270 286 285 283 278 237 237 242 219 213 219 219 226 218 225 232 240 232 229 241 251 256 271 256 250 258 258 246 259
253 257 259 256 260 264 276 273 261 265 267 268 274 276 273 275 271 262 262 270 288 292 296 280 256 252 237 242 224 211 219 213 219 215 222 234 247 249 238 236 246 265 267 265 251 259 266 250 248
249 255 259 254 255 258 261 265 267 271 271 270 275 275 269 266 255 262 252 279 295 292 289 264 248 246 242 239 227 216 216 212 214 224 221 233 242 255 241 245 252 259 264 260 261 267 263 256 242
245 246 249 250 247 262 254 263 262 260 262 260 259 267 275 280 275 259 269 272 277 287 267 250 237 235 237 234 229 225 212 220 218 219 222 235 251 263 261 258 250 250 257 265 266 259 263 249 237
221 235 241 255 250 250 246 251 258 257 256 259 262 250 263 275 277 258 253 274 291 263 252 246 235 221 230 226 228 206 212 220 198 217 221 229 248 253 250 269 270 268 272 264 252 262 263 250 239
235 238 247 252 247 248 253 258 266 271 271 267 246 253 258 267 272 253 255 273 279 257 253 244 229 209 212 214 196 199 200 203 204 217 222 227 234 244 261 265 267 271 269 256 266 266 249 235 237
243 252 253 261 258 262 262 264 262 255 255 260 261 265 257 274 285 293 256 270 252 254 255 243 218 208 206 199 191 199 195 216 205 220 227 235 246 255 257 265 272 270 262 263 263 259 240 230 222
237 240 247 258 268 269 270 268 267 265 269 275 269 277 273 272 277 281 281 265 233 243 246 227 196 188 188 191 180 189 191 204 199 205 206 231 236 261 264 270 273 269 265 258 256 242 229 232 244
240 235 245 252 252 256 256 268 255 262 266 260 252 249 252 250 250 253 254 208 214 220 210 185 185 192 181 175 179 184 189 195 216 233 228 226 258 277 280 275 284 272 264 228 248 251 242 247 243
246 240 248 249 249 260 255 260 264 268 268 269 273 266 262 261 259 258 231 190 178 181 174 178 185 164 166 173 192 185 182 206 196 209 246 246 258 263 276 281 276 265 238 237 244 253 254 243 237
243 243 252 257 257 248 240 245 264 260 270 279 277 266 262 243 246 237 173 156 157 157 166 172 159 153 178 169 182 179 200 178 178 211 235 253 274 274 273 248 270 241 249 262 260 247 249 231 226
239 238 231 238 234 244 242 242 259 265 268 269 271 271 277 243 231 136 145 149 150 156 163 163 154 173 170 168 186 178 193 205 206 221 249 276 282 276 239 201 239 258 255 252 219 200 207 228 239
218 233 224 219 221 240 243 250 257 249 255 254 294 219 261 121 145 136 145 150 152 160 162 158 164 167 164 175 170 174 184 151 198 220 216 269 281 231 150 189 238 175 159 145 163 197 217 219 237
244 220 236 248 234 249 246 232 239 247 244 242 210 198 162 124 133 142 148 152 156 160 160 163 164 164 167 170 171 167 175 157 229 218 182 232 137 126 131 202 188 194 166 149 208 218 212 225 236
240 232 222 228 232 242 232 247 271 195 219 221 200 186 141 134 146 149 150 156 156 159 161 163 165 170 170 170 167 164 177 204 231 199 149 139 118 144 204 136 135 148 158 187 207 193 201 225 186
230 235 220 242 227 235 248 260 269 158 168 182 166 172 147 148 154 151 153 155 157 159 162 164 168 170 168 170 171 184 196 188 225 222 178 170 146 168 149 121 120 125 150 165 162 182 216 209 234
232 230 232 219 220 230 248 247 90 88 165 189 185 164 149 154 156 154 155 157 159 161 163 168 171 169 168 165 176 196 160 202 232 176 166 153 148 139 127 101 82 78 232 325 152 150 153 248 204